sat.trackr.live / text

‹ back to catalog

SITRO-AIS 15

NORAD 61738 · 2024-199D

PAYLOAD ACTIVE UNKNOWN

§ Identity

Operator
Country
CIS
Launch date
2024-11-04
Launch site
VOSTO
Launch vehicle
Mass (kg)
RCS (m²)

External: N2YO · Heavens-Above · Gunter

§ Orbital elements

Epoch: 2026-05-25T03:44:35.464128Z

Period
96.16 min
Inclination
97.3245°
Eccentricity
0.0007528
Mean motion
14.97472654 rev/d
Perigee alt
569.5 km
Apogee alt
579.9 km
Semi-major
6,952.8 km
B*
2.1704e-4
RAAN
345.9596°
Arg perigee
136.1276°
Mean anomaly
224.0546°
Rev number
12,837

§ Raw data

SITRO-AIS 151 61738U 24199D   26145.15596602  .00002476  00000+0  21704-3 0  99972 61738  97.3245 345.9596 0007528 136.1276 224.0546 14.97472654128379

JSON: /api/v1/satellites/61738 · /tle

For live sub-satellite position, see the globe view (requires WebGL).

§ Visibility from observer

Set your observer location to see the next 7 days of passes ≥ 10°. The values pass through the URL so the page stays shareable.

No JS? Fill the form by hand. The geolocation button needs JavaScript.

§ Radio — SatNOGS DB

ModeDescriptionDownlinkUplink
GMSK USP Mode U - GMSK2k4 - USP 401.055 MHz

1 transmitter · refreshed weekly from db.satnogs.org